| time (UTC) | temp F | wind direction | speed knots | gust knots | rain 1hr in | rain 24hr in | rain mn in | humidity % | barometer mb |
| 20260505052003 | 49 | 237 | 5.2 | 8.7 | 0.00 | 0.00 | 0.00 | 32 | 1012.3 |
| 20260505051503 | 49 | 237 | 7.0 | 9.6 | 0.00 | 0.00 | 0.00 | 32 | 1012.3 |
| 20260505051003 | 49 | 234 | 7.8 | 10.4 | 0.00 | 0.00 | 0.00 | 32 | 1012.1 |
| 20260505050503 | 50 | 234 | 6.1 | 11.3 | 0.00 | 0.00 | 0.00 | 31 | 1012.2 |
| 20260505050217 | 49 | 235 | 4.3 | 11.3 | 0.00 | 0.00 | 0.00 | 32 | 1012.1 |
| 20260505041504 | 44 | 60 | 1.7 | 2.6 | 0.00 | 0.00 | 0.00 | 44 | 1012.0 |
| 20260505041003 | 44 | 60 | 1.7 | 3.5 | 0.00 | 0.00 | 0.00 | 44 | 1012.0 |
| 20260505040503 | 44 | 60 | 1.7 | 3.5 | 0.00 | 0.00 | 0.00 | 43 | 1011.9 |
| 20260505040004 | 44 | 60 | 1.7 | 3.5 | 0.00 | 0.00 | 0.00 | 43 | 1011.9 |
| 20260505035503 | 45 | 60 | 1.7 | 2.6 | 0.00 | 0.00 | 0.00 | 43 | 1011.8 |
| 20260505035003 | 45 | 60 | 2.6 | 3.5 | 0.00 | 0.00 | 0.00 | 43 | 1011.8 |
| 20260505034503 | 45 | 60 | 1.7 | 3.5 | 0.00 | 0.00 | 0.00 | 42 | 1011.7 |
| 20260505034221 | 44 | 60 | 2.6 | 3.5 | 0.00 | 0.00 | 0.00 | 43 | 1011.8 |
| 20260505033503 | 44 | 60 | 2.6 | 3.5 | 0.00 | 0.00 | 0.00 | 44 | 1011.6 |
| 20260505033003 | 44 | 62 | 1.7 | 3.5 | 0.00 | 0.00 | 0.00 | 44 | 1011.6 |
| 20260505032503 | 45 | 64 | 1.7 | 3.5 | 0.00 | 0.00 | 0.00 | 44 | 1011.5 |
| 20260505032217 | 46 | 50 | 1.7 | 3.5 | 0.00 | 0.00 | 0.00 | 43 | 1011.4 |
| 20260505031503 | 48 | 338 | 1.7 | 3.5 | 0.00 | 0.00 | 0.00 | 39 | 1011.4 |
| 20260505031003 | 50 | 331 | 2.6 | 3.5 | 0.00 | 0.00 | 0.00 | 35 | 1011.3 |
| 20260505030503 | 50 | 331 | 3.5 | 3.5 | 0.00 | 0.00 | 0.00 | 34 | 1011.3 |
| 20260505030003 | 50 | 331 | 3.5 | 4.3 | 0.00 | 0.00 | 0.00 | 34 | 1011.3 |
| 20260505025503 | 50 | 331 | 3.5 | 4.3 | 0.00 | 0.00 | 0.00 | 34 | 1011.4 |
| 20260505025003 | 50 | 331 | 3.5 | 4.3 | 0.00 | 0.00 | 0.00 | 34 | 1011.4 |
| 20260505024503 | 50 | 331 | 3.5 | 4.3 | 0.00 | 0.00 | 0.00 | 34 | 1011.4 |
| 20260505024216 | 51 | 331 | 3.5 | 4.3 | 0.00 | 0.00 | 0.00 | 34 | 1011.3 |
| 20260505023718 | 51 | 331 | 3.5 | 4.3 | 0.00 | 0.00 | 0.00 | 33 | 1011.3 |
| 20260505023003 | 51 | 331 | 3.5 | 4.3 | 0.00 | 0.00 | 0.00 | 33 | 1011.3 |
| 20260505022503 | 52 | 314 | 3.5 | 7.0 | 0.00 | 0.00 | 0.00 | 33 | 1011.3 |
| 20260505022003 | 53 | 287 | 3.5 | 7.0 | 0.00 | 0.00 | 0.00 | 32 | 1011.3 |
| 20260505021717 | 53 | 277 | 3.5 | 5.2 | 0.00 | 0.00 | 0.00 | 31 | 1011.2 |
| 20260505021003 | 54 | 275 | 2.6 | 5.2 | 0.00 | 0.00 | 0.00 | 30 | 1011.1 |
| 20260505020717 | 54 | 275 | 3.5 | 5.2 | 0.00 | 0.00 | 0.00 | 30 | 1011.2 |
| 20260505020003 | 54 | 270 | 4.3 | 7.0 | 0.00 | 0.00 | 0.00 | 30 | 1011.2 |
| 20260505015503 | 54 | 269 | 6.1 | 8.7 | 0.00 | 0.00 | 0.00 | 29 | 1011.2 |
| 20260505015003 | 55 | 270 | 7.0 | 9.6 | 0.00 | 0.00 | 0.00 | 29 | 1010.9 |
| 20260505014503 | 55 | 265 | 7.0 | 10.4 | 0.00 | 0.00 | 0.00 | 29 | 1011.2 |
| 20260505014003 | 55 | 259 | 7.8 | 10.4 | 0.00 | 0.00 | 0.00 | 29 | 1011.3 |
| 20260505013503 | 55 | 257 | 7.8 | 10.4 | 0.00 | 0.00 | 0.00 | 29 | 1011.2 |
| 20260505013003 | 56 | 257 | 7.8 | 10.4 | 0.00 | 0.00 | 0.00 | 29 | 1011.2 |
| 20260505012503 | 56 | 256 | 7.0 | 11.3 | 0.00 | 0.00 | 0.00 | 28 | 1011.1 |
| 20260505012003 | 56 | 251 | 7.0 | 11.3 | 0.00 | 0.00 | 0.00 | 28 | 1011.2 |
| 20260505011503 | 56 | 250 | 7.8 | 10.4 | 0.00 | 0.00 | 0.00 | 29 | 1011.2 |
| 20260505011003 | 56 | 252 | 7.8 | 11.3 | 0.00 | 0.00 | 0.00 | 28 | 1011.3 |
| 20260505010503 | 57 | 254 | 7.8 | 12.2 | 0.00 | 0.00 | 0.00 | 28 | 1011.3 |
| 20260505010003 | 57 | 259 | 7.8 | 12.2 | 0.00 | 0.00 | 0.00 | 28 | 1011.4 |
| 20260505005503 | 57 | 268 | 8.7 | 13.0 | 0.00 | 0.00 | 0.00 | 28 | 1011.4 |
| 20260505005003 | 57 | 272 | 8.7 | 13.0 | 0.00 | 0.00 | 0.00 | 27 | 1011.3 |
| 20260505004503 | 57 | 270 | 7.8 | 11.3 | 0.00 | 0.00 | 0.00 | 27 | 1011.3 |
| 20260505004003 | 57 | 260 | 7.8 | 10.4 | 0.00 | 0.00 | 0.00 | 27 | 1011.3 |
| 20260505003503 | 57 | 260 | 8.7 | 12.2 | 0.00 | 0.00 | 0.00 | 26 | 1011.3 |
| 20260505003218 | 57 | 268 | 8.7 | 12.2 | 0.00 | 0.00 | 0.00 | 26 | 1011.4 |
| 20260505002503 | 57 | 264 | 8.7 | 12.2 | 0.00 | 0.00 | 0.00 | 26 | 1011.5 |
| 20260505002003 | 58 | 255 | 8.7 | 12.2 | 0.00 | 0.00 | 0.00 | 25 | 1011.6 |
| 20260505001503 | 58 | 251 | 8.7 | 12.2 | 0.00 | 0.00 | 0.00 | 25 | 1011.6 |
| 20260505001003 | 58 | 261 | 8.7 | 12.2 | 0.00 | 0.00 | 0.00 | 25 | 1011.5 |
| 20260505000503 | 58 | 260 | 9.6 | 13.9 | 0.00 | 0.00 | 0.00 | 25 | 1011.6 |
| 20260505000003 | 58 | 249 | 10.4 | 15.6 | 0.00 | 0.00 | 0.00 | 25 | 1011.7 |
| 20260504235503 | 58 | 248 | 10.4 | 15.6 | 0.00 | 0.00 | 0.00 | 25 | 1011.8 |
| 20260504235003 | 58 | 256 | 10.4 | 15.6 | 0.00 | 0.00 | 0.00 | 25 | 1011.7 |
| 20260504234503 | 58 | 261 | 10.4 | 14.8 | 0.00 | 0.00 | 0.00 | 24 | 1011.9 |
| 20260504234003 | 58 | 258 | 10.4 | 15.6 | 0.00 | 0.00 | 0.00 | 24 | 1012.0 |
| 20260504233716 | 58 | 255 | 11.3 | 20.0 | 0.00 | 0.00 | 0.00 | 24 | 1012.0 |
| 20260504233003 | 58 | 256 | 12.2 | 20.0 | 0.00 | 0.00 | 0.00 | 24 | 1012.0 |
| 20260504232503 | 58 | 264 | 11.3 | 20.9 | 0.00 | 0.00 | 0.00 | 23 | 1012.0 |
| 20260504232004 | 58 | 260 | 12.2 | 20.9 | 0.00 | 0.00 | 0.00 | 23 | 1012.1 |
| 20260504231503 | 59 | 258 | 13.0 | 18.2 | 0.00 | 0.00 | 0.00 | 22 | 1012.1 |
| 20260504231003 | 59 | 266 | 13.0 | 17.4 | 0.00 | 0.00 | 0.00 | 21 | 1012.2 |
| 20260504230503 | 59 | 275 | 13.0 | 19.1 | 0.00 | 0.00 | 0.00 | 22 | 1012.2 |
| 20260504230003 | 58 | 274 | 13.0 | 19.1 | 0.00 | 0.00 | 0.00 | 22 | 1012.2 |
| 20260504225503 | 59 | 262 | 12.2 | 17.4 | 0.00 | 0.00 | 0.00 | 22 | 1012.2 |
| 20260504225003 | 58 | 252 | 12.2 | 16.5 | 0.00 | 0.00 | 0.00 | 23 | 1012.2 |
| 20260504224718 | 58 | 252 | 13.0 | 16.5 | 0.00 | 0.00 | 0.00 | 25 | 1012.2 |
| 20260504224217 | 58 | 262 | 13.0 | 20.0 | 0.00 | 0.00 | 0.00 | 25 | 1012.2 |
| 20260504223503 | 58 | 252 | 13.0 | 18.2 | 0.00 | 0.00 | 0.00 | 23 | 1012.1 |
| 20260504223217 | 58 | 241 | 12.2 | 18.2 | 0.00 | 0.00 | 0.00 | 23 | 1012.1 |
| 20260504222503 | 58 | 250 | 11.3 | 19.1 | 0.00 | 0.00 | 0.00 | 23 | 1012.1 |
| 20260504222003 | 58 | 251 | 13.0 | 18.2 | 0.00 | 0.00 | 0.00 | 26 | 1012.2 |
| 20260504221503 | 58 | 248 | 13.9 | 21.7 | 0.00 | 0.00 | 0.00 | 25 | 1012.4 |
| 20260504221003 | 58 | 237 | 13.9 | 21.7 | 0.00 | 0.00 | 0.00 | 26 | 1012.4 |
| 20260504220503 | 58 | 232 | 13.0 | 19.1 | 0.00 | 0.00 | 0.00 | 23 | 1012.4 |
| 20260504220003 | 58 | 242 | 12.2 | 20.0 | 0.00 | 0.00 | 0.00 | 26 | 1012.3 |
| 20260504215503 | 58 | 252 | 11.3 | 20.0 | 0.00 | 0.00 | 0.00 | 28 | 1012.4 |
| 20260504215003 | 58 | 261 | 8.7 | 17.4 | 0.00 | 0.00 | 0.00 | 30 | 1012.5 |
| 20260504214718 | 58 | 267 | 9.6 | 17.4 | 0.00 | 0.00 | 0.00 | 29 | 1012.5 |
| 20260504214003 | 58 | 269 | 13.0 | 17.4 | 0.00 | 0.00 | 0.00 | 31 | 1012.5 |
| 20260504213503 | 58 | 247 | 13.9 | 21.7 | 0.00 | 0.00 | 0.00 | 31 | 1012.6 |
| 20260504213003 | 58 | 235 | 13.9 | 21.7 | 0.00 | 0.00 | 0.00 | 29 | 1012.8 |
| 20260504212718 | 59 | 235 | 13.0 | 21.7 | 0.00 | 0.00 | 0.00 | 28 | 1012.8 |
| 20260504212003 | 58 | 228 | 10.4 | 19.1 | 0.00 | 0.00 | 0.00 | 32 | 1012.9 |
| 20260504211503 | 58 | 221 | 10.4 | 18.2 | 0.00 | 0.00 | 0.00 | 34 | 1012.9 |
| 20260504211003 | 58 | 236 | 11.3 | 18.2 | 0.00 | 0.00 | 0.00 | 33 | 1013.1 |
| 20260504210503 | 57 | 246 | 11.3 | 18.2 | 0.00 | 0.00 | 0.00 | 34 | 1013.0 |
| 20260504210003 | 58 | 230 | 10.4 | 18.2 | 0.00 | 0.00 | 0.00 | 35 | 1013.1 |
| 20260504205503 | 57 | 231 | 10.4 | 17.4 | 0.00 | 0.00 | 0.00 | 34 | 1013.3 |
| 20260504205003 | 58 | 233 | 11.3 | 17.4 | 0.00 | 0.00 | 0.00 | 34 | 1013.1 |
| 20260504204503 | 57 | 230 | 10.4 | 18.2 | 0.00 | 0.00 | 0.00 | 34 | 1013.4 |
| 20260504204003 | 57 | 240 | 10.4 | 18.2 | 0.00 | 0.00 | 0.00 | 35 | 1013.5 |
| 20260504203503 | 57 | 236 | 12.2 | 19.1 | 0.00 | 0.00 | 0.00 | 37 | 1013.6 |
| 20260504203003 | 57 | 238 | 10.4 | 19.1 | 0.00 | 0.00 | 0.00 | 36 | 1013.5 |
| 20260504202503 | 57 | 250 | 9.6 | 16.5 | 0.00 | 0.00 | 0.00 | 38 | 1013.4 |
| 20260504202003 | 57 | 241 | 11.3 | 17.4 | 0.00 | 0.00 | 0.00 | 37 | 1013.6 |
| 20260504201503 | 56 | 242 | 11.3 | 17.4 | 0.00 | 0.00 | 0.00 | 37 | 1013.8 |
| 20260504201003 | 57 | 257 | 10.4 | 15.6 | 0.00 | 0.00 | 0.00 | 38 | 1013.9 |
| 20260504200503 | 56 | 257 | 9.6 | 15.6 | 0.00 | 0.00 | 0.00 | 37 | 1013.8 |
| 20260504200218 | 56 | 255 | 9.6 | 15.6 | 0.00 | 0.00 | 0.00 | 37 | 1013.8 |
| 20260504195503 | 56 | 238 | 11.3 | 16.5 | 0.00 | 0.00 | 0.00 | 37 | 1014.0 |
| 20260504195003 | 56 | 240 | 11.3 | 16.5 | 0.00 | 0.00 | 0.00 | 38 | 1014.0 |
| 20260504194503 | 56 | 259 | 10.4 | 15.6 | 0.00 | 0.00 | 0.00 | 39 | 1014.0 |
| 20260504194003 | 56 | 263 | 9.6 | 15.6 | 0.00 | 0.00 | 0.00 | 38 | 1013.9 |
| 20260504193503 | 56 | 261 | 9.6 | 15.6 | 0.00 | 0.00 | 0.00 | 39 | 1013.9 |
| 20260504193218 | 56 | 262 | 9.6 | 15.6 | 0.00 | 0.00 | 0.00 | 39 | 1013.9 |
| 20260504192717 | 56 | 256 | 9.6 | 15.6 | 0.00 | 0.00 | 0.00 | 40 | 1014.0 |
| 20260504192003 | 56 | 255 | 9.6 | 15.6 | 0.00 | 0.00 | 0.00 | 40 | 1013.9 |
| 20260504191503 | 56 | 261 | 9.6 | 15.6 | 0.00 | 0.00 | 0.00 | 39 | 1013.9 |
| 20260504191003 | 56 | 242 | 10.4 | 16.5 | 0.00 | 0.00 | 0.00 | 40 | 1014.1 |
| 20260504190717 | 56 | 234 | 10.4 | 16.5 | 0.00 | 0.00 | 0.00 | 40 | 1014.1 |
| 20260504190218 | 56 | 232 | 11.3 | 17.4 | 0.00 | 0.00 | 0.00 | 40 | 1014.2 |
| 20260504185717 | 55 | 225 | 10.4 | 17.4 | 0.00 | 0.00 | 0.00 | 40 | 1014.1 |
| 20260504185003 | 55 | 224 | 10.4 | 16.5 | 0.00 | 0.00 | 0.00 | 41 | 1014.2 |
| 20260504184503 | 56 | 237 | 9.6 | 16.5 | 0.00 | 0.00 | 0.00 | 40 | 1014.2 |
| 20260504184003 | 55 | 241 | 10.4 | 16.5 | 0.00 | 0.00 | 0.00 | 41 | 1014.3 |
| 20260504183717 | 55 | 237 | 11.3 | 16.5 | 0.00 | 0.00 | 0.00 | 41 | 1014.4 |
| 20260504183003 | 55 | 244 | 10.4 | 15.6 | 0.00 | 0.00 | 0.00 | 42 | 1014.5 |
| 20260504182717 | 55 | 249 | 9.6 | 15.6 | 0.00 | 0.00 | 0.00 | 41 | 1014.5 |
| 20260504182003 | 55 | 253 | 10.4 | 15.6 | 0.00 | 0.00 | 0.00 | 43 | 1014.6 |
| 20260504181503 | 55 | 240 | 11.3 | 15.6 | 0.00 | 0.00 | 0.00 | 41 | 1014.8 |
| 20260504181003 | 54 | 238 | 9.6 | 15.6 | 0.00 | 0.00 | 0.00 | 42 | 1014.7 |
| 20260504180503 | 55 | 251 | 8.7 | 14.8 | 0.00 | 0.00 | 0.00 | 41 | 1014.7 |
| 20260504180003 | 54 | 250 | 8.7 | 14.8 | 0.00 | 0.00 | 0.00 | 43 | 1014.8 |
| 20260504175503 | 54 | 228 | 7.8 | 14.8 | 0.00 | 0.00 | 0.00 | 43 | 1014.8 |
| 20260504175003 | 53 | 211 | 7.8 | 13.9 | 0.00 | 0.00 | 0.00 | 46 | 1014.8 |
| 20260504174503 | 54 | 222 | 7.8 | 14.8 | 0.00 | 0.00 | 0.00 | 45 | 1014.8 |
| 20260504174003 | 53 | 242 | 7.8 | 14.8 | 0.00 | 0.00 | 0.00 | 49 | 1014.9 |
| 20260504173503 | 53 | 246 | 7.8 | 14.8 | 0.00 | 0.00 | 0.00 | 50 | 1014.8 |
| 20260504173003 | 52 | 244 | 7.8 | 14.8 | 0.00 | 0.00 | 0.00 | 49 | 1015.0 |
| 20260504172503 | 52 | 236 | 8.7 | 13.0 | 0.00 | 0.00 | 0.00 | 51 | 1015.1 |
| 20260504172003 | 52 | 228 | 8.7 | 13.0 | 0.00 | 0.00 | 0.00 | 50 | 1015.0 |
| 20260504171503 | 53 | 236 | 7.0 | 12.2 | 0.00 | 0.00 | 0.00 | 50 | 1015.0 |
| 20260504171003 | 53 | 241 | 6.1 | 12.2 | 0.00 | 0.00 | 0.00 | 50 | 1015.0 |
| 20260504170718 | 53 | 243 | 6.1 | 12.2 | 0.00 | 0.00 | 0.00 | 51 | 1015.0 |
| 20260504151003 | 50 | 45 | 4.3 | 7.8 | 0.00 | 0.00 | 0.00 | 61 | 1015.1 |
| 20260504150503 | 50 | 45 | 5.2 | 8.7 | 0.00 | 0.00 | 0.00 | 62 | 1015.1 |
| 20260504141003 | 47 | 59 | 6.1 | 8.7 | 0.00 | 0.00 | 0.00 | 67 | 1015.3 |
| 20260504140717 | 47 | 56 | 6.1 | 8.7 | 0.00 | 0.00 | 0.00 | 68 | 1015.3 |
| 20260504130717 | 44 | 47 | 5.2 | 8.7 | 0.00 | 0.00 | 0.00 | 73 | 1014.6 |
| 20260504110503 | 43 | 46 | 6.1 | 8.7 | 0.00 | 0.00 | 0.00 | 74 | 1014.4 |
| 20260504082003 | 47 | 62 | 10.4 | 13.0 | 0.00 | 0.00 | 0.00 | 65 | 1014.2 |
| 20260504081503 | 47 | 65 | 10.4 | 13.9 | 0.00 | 0.00 | 0.00 | 64 | 1014.2 |
| 20260504081003 | 47 | 66 | 7.8 | 13.9 | 0.00 | 0.00 | 0.00 | 64 | 1014.3 |
| 20260504080717 | 47 | 70 | 7.0 | 12.2 | 0.00 | 0.00 | 0.00 | 64 | 1014.4 |